Content
SEND FEEDBACK

Daily
Averages
Monthly
Summary
United States of America

STATEN ISLAND, NEW YORK


Home > North America > United States > New York
Elevation: 152 feet     Latitude: 40 35N     Longitude: 074 09W

WEATHER
 
SELECT A DAY
Number of Records: 189,864;   Date Range: 1/1/95 - 9/16/14
 
SHARE

PRINT THIS DATA

[ ← Previous Day ]
WEATHER ALMANAC - MAY 14, 2013
[ Next Day → ]
[ °C ]   °F
Weather ElementAverageHighLow
Temperature53.7 °F62.1 °F (2:51 pm)43 °F (4:51 am)
Dewpoint25.5 °F33.1 °F (1:51 am)14 °F (6:51 pm)
Humidity37.3 %65 % (2:51 am)16 % (6:51 pm)
Barometer30.09 in30.14 in (8:51 am)30.02 in (5:51 pm)
Wind Speed9.7 mph17.3 mph (2:51 pm)
Wind Gust23 mph (2:51 pm)
Weather ElementAverage
Visibility10 mi
Wind DirectionWNW (280 °)

Weather ElementTotal
Precipitation---
Heating Degree Days12.5 (Base 65)
Growing Degree Days2.6 (Base 50)
Averaged from 23 records on May 14, 2013
WEATHER CONDITIONS BREAKOUT
WIND DIRECTION BREAKOUT
WEATHER BY HOUR - MAY 14, 2013
[ °C ]   °F
Local TimeTemperatureDewpointHumidityBarometerVisibilityWind DirectionWind SpeedGust SpeedPrecipitationEventsConditions
1:51 AM45.0 °F33.1 °F63 %30.11 in10.0 miNNW (330°)9.2 mphClear
2:51 AM44.1 °F33.1 °F65 %30.12 in10.0 miNW (310°)9.2 mphClear
3:51 AM44.1 °F32.0 °F63 %30.12 in10.0 miWNW (300°)9.2 mphClear
4:51 AM43.0 °F30.9 °F62 %30.11 in10.0 miNW (310°)6.9 mphClear
5:51 AM43.0 °F30.0 °F60 %30.12 in10.0 miNW (310°)10.4 mphClear
6:51 AM45.0 °F30.0 °F56 %30.13 in10.0 miNW (320°)8.1 mphClear
7:51 AM48.0 °F30.0 °F50 %30.13 in10.0 miNW (310°)8.1 mphPartly Cloudy
8:51 AM51.1 °F30.0 °F44 %30.14 in10.0 miNW (320°)10.4 mphPartly Cloudy
9:51 AM54.0 °F28.0 °F37 %30.13 in10.0 miNW (310°)11.5 mph16.1 mphScattered Clouds
10:51 AM55.9 °F26.1 °F32 %30.12 in10.0 miWNW (290°)12.7 mphScattered Clouds
11:51 AM57.0 °F25.0 °F29 %30.11 in10.0 miWest (260°)6.9 mph18.4 mphScattered Clouds
12:51 PM57.9 °F24.1 °F27 %30.10 in10.0 miWSW (250°)16.1 mph20.7 mphMostly Cloudy
1:51 PM60.8 °F24.8 °F25 %30.09 in10.0 miWest (270°)11.5 mph17.3 mphMostly Cloudy
2:51 PM62.1 °F21.0 °F21 %30.07 in10.0 miWest (270°)17.3 mph23.0 mphMostly Cloudy
3:51 PM61.0 °F21.0 °F21 %30.05 in10.0 miWest (270°)8.1 mphMostly Cloudy
4:51 PM62.1 °F19.0 °F19 %30.04 in10.0 miNW (310°)4.6 mphMostly Cloudy
5:51 PM62.1 °F18.0 °F18 %30.02 in10.0 miWest (260°)12.7 mph19.6 mphScattered Clouds
6:51 PM61.0 °F14.0 °F16 %30.03 in10.0 miWSW (250°)12.7 mphScattered Clouds
7:51 PM59.0 °F17.1 °F20 %30.03 in10.0 miWest (270°)6.9 mphScattered Clouds
8:51 PM57.2 °F21.2 °F25 %30.04 in10.0 miWSW (240°)6.9 mphScattered Clouds
9:51 PM57.0 °F23.0 °F27 %30.06 in10.0 miSW (230°)6.9 mphScattered Clouds
10:51 PM55.0 °F26.1 °F33 %30.07 in10.0 miWSW (240°)10.4 mphScattered Clouds
11:51 PM50.0 °F28.9 °F44 %30.07 in10.0 miSSW (210°)6.9 mphPartly Cloudy
Hourly data recorded from KEWR, located miles away from Staten Island, New York







STORIES FROM OUR PARTNERS